User: anonymous   Login
Location: Unspecified
(0.0000°N, 0.0000°E)
Time: 15:05:02
(UTC+00:00)
Language:

BEESAT 2 - Orbit

View from above orbital plane
View from above orbital plane
View from above satellite
View from above satellite

Ground track
Ground track

The orbit data is extracted from the following two-line orbital elements,

1 39136U 13015G   19078.52898892 +.00000836 +00000-0 +52382-4 0  9999
2 39136 064.8711 336.3202 0011442 294.7845 065.2090 15.16710503325956
Epoch (UTC): 19 March 2019 12:41:44
Eccentricity: 0.0011442
inclination: 64.8711°
perigee height: 508 km
apogee height: 523 km
right ascension of ascending node: 336.3202°
argument of perigee: 294.7845°
revolutions per day: 15.16710503
mean anomaly at epoch: 65.2090°
orbit number at epoch: 32595

The dashed part of the orbit path shows where the satellite is in the earth's shadow,  

DLR